| time (UTC) | temp C | wind direction | speed KPH | gust KPH | rain 1hr cm | rain 24hr cm | rain mn cm | humidity % | barometer mb |
| 20260504141211 | 14 | 169 | 8.0 | 11.3 | 0.00 | 0.56 | 0.56 | 88 | 1007.7 |
| 20260504140708 | 14 | 162 | 6.4 | 9.7 | 0.00 | 0.56 | 0.56 | 87 | 1007.6 |
| 20260504140203 | 14 | 131 | 8.0 | 11.3 | 0.00 | 0.56 | 0.56 | 87 | 1007.6 |
| 20260504130632 | 13 | 192 | 11.3 | 17.7 | 0.00 | 0.56 | 0.56 | 88 | 1009.2 |
| 20260504130128 | 13 | 207 | 6.4 | 9.7 | 0.00 | 0.56 | 0.56 | 88 | 1009.2 |
| 20260504081616 | 13 | 311 | 3.2 | 3.2 | 0.13 | 0.33 | 0.33 | 84 | 1008.6 |
| 20260504081112 | 14 | 326 | 6.4 | 6.4 | 0.30 | 0.33 | 0.33 | 83 | 1008.7 |
| 20260504080609 | 14 | 206 | 19.3 | 25.7 | 0.18 | 0.30 | 0.30 | 81 | 1009.1 |
| 20260504080105 | 13 | 252 | 11.3 | 14.5 | 0.00 | 0.28 | 0.28 | 87 | 1009.9 |
| 20260504050421 | 13 | 168 | 4.8 | 4.8 | 0.00 | 0.00 | 0.00 | 78 | 1010.2 |
| 20260504045919 | 13 | 153 | 4.8 | 4.8 | 0.00 | 0.00 | 0.00 | 78 | 1010.2 |
| 20260504045414 | 13 | 108 | 3.2 | 4.8 | 0.00 | 0.00 | 0.00 | 76 | 1009.8 |
| 20260504044911 | 13 | 112 | 0.0 | 1.6 | 0.00 | 0.00 | 0.00 | 77 | 1009.8 |
| 20260504044408 | 13 | 113 | 1.6 | 3.2 | 0.00 | 0.00 | 0.00 | 77 | 1009.8 |
| 20260504043906 | 14 | 116 | 1.6 | 3.2 | 0.00 | 0.00 | 0.00 | 76 | 1009.8 |
| 20260504043402 | 14 | 125 | 3.2 | 3.2 | 0.00 | 0.00 | 0.00 | 76 | 1010.2 |
| 20260504042900 | 14 | 136 | 4.8 | 4.8 | 0.00 | 0.00 | 0.00 | 76 | 1010.2 |
| 20260504042356 | 14 | 148 | 1.6 | 1.6 | 0.00 | 0.00 | 0.00 | 76 | 1010.5 |
| 20260504041852 | 15 | 124 | 1.6 | 3.2 | 0.00 | 0.00 | 0.00 | 75 | 1010.6 |
| 20260504041348 | 15 | 157 | 4.8 | 4.8 | 0.00 | 0.00 | 0.00 | 74 | 1010.6 |
| 20260504040845 | 14 | 107 | 0.0 | 0.0 | 0.00 | 0.00 | 0.00 | 78 | 1010.4 |
| 20260504040342 | 14 | 102 | 0.0 | 0.0 | 0.00 | 0.00 | 0.00 | 76 | 1010.9 |
| 20260504035838 | 14 | 102 | 0.0 | 0.0 | 0.00 | 0.00 | 0.00 | 76 | 1010.7 |
| 20260504035337 | 15 | 121 | 0.0 | 0.0 | 0.00 | 0.00 | 0.00 | 75 | 1011.0 |
| 20260504034832 | 15 | 150 | 0.0 | 0.0 | 0.00 | 0.00 | 0.00 | 75 | 1010.9 |
| 20260504034325 | 15 | 148 | 1.6 | 3.2 | 0.00 | 0.00 | 0.00 | 75 | 1010.9 |
| 20260504033821 | 15 | 150 | 3.2 | 4.8 | 0.00 | 0.00 | 0.00 | 73 | 1010.7 |
| 20260504033320 | 15 | 153 | 1.6 | 3.2 | 0.00 | 0.00 | 0.00 | 72 | 1010.7 |
| 20260504032815 | 15 | 143 | 3.2 | 3.2 | 0.00 | 0.00 | 0.00 | 72 | 1010.8 |
| 20260504032313 | 16 | 146 | 3.2 | 4.8 | 0.00 | 0.00 | 0.00 | 71 | 1010.8 |
| 20260504031809 | 16 | 144 | 3.2 | 4.8 | 0.00 | 0.00 | 0.00 | 71 | 1011.0 |
| 20260504031307 | 16 | 131 | 3.2 | 6.4 | 0.00 | 0.00 | 0.00 | 69 | 1011.0 |
| 20260504030802 | 16 | 104 | 3.2 | 4.8 | 0.00 | 0.00 | 0.00 | 69 | 1010.8 |
| 20260504030300 | 16 | 177 | 3.2 | 3.2 | 0.00 | 0.00 | 0.00 | 69 | 1010.7 |
| 20260504025755 | 16 | 117 | 3.2 | 3.2 | 0.00 | 0.00 | 0.00 | 69 | 1010.8 |
| 20260504025253 | 16 | 91 | 0.0 | 1.6 | 0.00 | 0.00 | 0.00 | 70 | 1011.0 |
| 20260504024749 | 16 | 148 | 1.6 | 1.6 | 0.00 | 0.00 | 0.00 | 68 | 1011.1 |
| 20260504024246 | 16 | 137 | 1.6 | 3.2 | 0.00 | 0.00 | 0.00 | 67 | 1011.0 |
| 20260504023743 | 17 | 105 | 0.0 | 1.6 | 0.00 | 0.00 | 0.00 | 65 | 1010.6 |
| 20260504023239 | 17 | 184 | 1.6 | 1.6 | 0.00 | 0.00 | 0.00 | 64 | 1010.7 |
| 20260504022735 | 17 | 53 | 1.6 | 1.6 | 0.00 | 0.00 | 0.00 | 64 | 1010.9 |
| 20260504022231 | 17 | 270 | 0.0 | 1.6 | 0.00 | 0.00 | 0.00 | 62 | 1011.2 |
| 20260504021729 | 17 | 252 | 1.6 | 3.2 | 0.00 | 0.00 | 0.00 | 62 | 1011.0 |
| 20260504021226 | 17 | 168 | 3.2 | 3.2 | 0.00 | 0.00 | 0.00 | 62 | 1010.9 |
| 20260504020723 | 17 | 116 | 3.2 | 4.8 | 0.00 | 0.00 | 0.00 | 61 | 1010.7 |
| 20260504020219 | 17 | 140 | 6.4 | 9.7 | 0.00 | 0.00 | 0.00 | 62 | 1010.7 |
| 20260504015716 | 18 | 139 | 3.2 | 3.2 | 0.00 | 0.00 | 0.00 | 61 | 1010.8 |
| 20260504015212 | 18 | 133 | 6.4 | 6.4 | 0.00 | 0.00 | 0.00 | 59 | 1010.8 |
| 20260504014708 | 18 | 129 | 4.8 | 4.8 | 0.00 | 0.00 | 0.00 | 59 | 1010.8 |
| 20260504014205 | 17 | 135 | 3.2 | 3.2 | 0.00 | 0.00 | 0.00 | 63 | 1010.6 |
| 20260504013703 | 17 | 126 | 3.2 | 3.2 | 0.00 | 0.00 | 0.00 | 63 | 1010.6 |
| 20260504013159 | 17 | 9 | 1.6 | 3.2 | 0.00 | 0.00 | 0.00 | 61 | 1010.7 |
| 20260504012656 | 17 | 151 | 0.0 | 0.0 | 0.00 | 0.00 | 0.00 | 63 | 1010.2 |
| 20260504012154 | 17 | 157 | 3.2 | 4.8 | 0.00 | 0.00 | 0.00 | 63 | 1010.1 |
| 20260504011651 | 18 | 145 | 3.2 | 4.8 | 0.00 | 0.00 | 0.00 | 62 | 1010.3 |
| 20260504011148 | 18 | 144 | 1.6 | 3.2 | 0.00 | 0.00 | 0.00 | 61 | 1010.1 |
| 20260504010643 | 18 | 127 | 3.2 | 4.8 | 0.00 | 0.00 | 0.00 | 62 | 1009.8 |
| 20260504010139 | 18 | 133 | 4.8 | 6.4 | 0.00 | 0.00 | 0.00 | 59 | 1010.4 |
| 20260504005636 | 18 | 237 | 0.0 | 0.0 | 0.00 | 0.00 | 0.00 | 59 | 1010.7 |
| 20260504005128 | 18 | 163 | 3.2 | 3.2 | 0.00 | 0.00 | 0.00 | 58 | 1010.1 |
| 20260504004626 | 18 | 167 | 3.2 | 3.2 | 0.00 | 0.00 | 0.00 | 56 | 1010.4 |
| 20260504004122 | 18 | 169 | 3.2 | 4.8 | 0.00 | 0.00 | 0.00 | 58 | 1010.1 |
| 20260504003619 | 18 | 165 | 1.6 | 3.2 | 0.00 | 0.00 | 0.00 | 58 | 1010.3 |
| 20260504003110 | 18 | 158 | 3.2 | 4.8 | 0.00 | 0.00 | 0.00 | 57 | 1010.5 |
| 20260504002607 | 18 | 136 | 4.8 | 6.4 | 0.00 | 0.00 | 0.00 | 57 | 1010.2 |
| 20260504002105 | 19 | 165 | 3.2 | 3.2 | 0.00 | 0.00 | 0.00 | 55 | 1010.3 |
| 20260504001602 | 19 | 143 | 6.4 | 11.3 | 0.00 | 0.00 | 0.00 | 53 | 1010.3 |
| 20260504001058 | 19 | 163 | 4.8 | 4.8 | 0.00 | 0.00 | 0.00 | 54 | 1010.3 |
| 20260504000555 | 20 | 164 | 4.8 | 4.8 | 0.00 | 0.00 | 0.00 | 53 | 1010.2 |
| 20260504000053 | 20 | 153 | 4.8 | 4.8 | 0.00 | 0.00 | 0.00 | 51 | 1010.4 |
| 20260503235551 | 20 | 172 | 4.8 | 4.8 | 0.00 | 0.00 | 0.00 | 53 | 1010.3 |
| 20260503235047 | 20 | 170 | 3.2 | 4.8 | 0.00 | 0.00 | 0.00 | 52 | 1010.5 |
| 20260503234545 | 20 | 145 | 4.8 | 6.4 | 0.00 | 0.00 | 0.00 | 51 | 1010.2 |
| 20260503234043 | 20 | 114 | 6.4 | 9.7 | 0.00 | 0.00 | 0.00 | 52 | 1010.3 |
| 20260503233539 | 20 | 163 | 8.0 | 11.3 | 0.00 | 0.00 | 0.00 | 50 | 1010.2 |
| 20260503233035 | 20 | 184 | 6.4 | 9.7 | 0.00 | 0.00 | 0.00 | 51 | 1010.3 |
| 20260503232533 | 20 | 164 | 8.0 | 9.7 | 0.00 | 0.00 | 0.00 | 50 | 1010.3 |
| 20260503232030 | 20 | 196 | 6.4 | 6.4 | 0.00 | 0.00 | 0.00 | 49 | 1010.3 |
| 20260503231528 | 21 | 136 | 8.0 | 11.3 | 0.00 | 0.00 | 0.00 | 48 | 1010.7 |
| 20260503231024 | 21 | 150 | 11.3 | 16.1 | 0.00 | 0.00 | 0.00 | 46 | 1010.7 |
| 20260503230521 | 21 | 150 | 6.4 | 6.4 | 0.00 | 0.00 | 0.00 | 46 | 1010.6 |
| 20260503230018 | 21 | 171 | 8.0 | 11.3 | 0.00 | 0.00 | 0.00 | 45 | 1010.6 |
| 20260503225514 | 21 | 184 | 8.0 | 9.7 | 0.00 | 0.00 | 0.00 | 45 | 1010.7 |
| 20260503225009 | 21 | 191 | 12.9 | 17.7 | 0.00 | 0.00 | 0.00 | 45 | 1010.8 |
| 20260503224507 | 21 | 176 | 9.7 | 14.5 | 0.00 | 0.00 | 0.00 | 44 | 1010.9 |
| 20260503223959 | 21 | 182 | 11.3 | 14.5 | 0.00 | 0.00 | 0.00 | 43 | 1010.8 |
| 20260503223457 | 21 | 182 | 19.3 | 24.1 | 0.00 | 0.00 | 0.00 | 43 | 1011.1 |
| 20260503222952 | 21 | 171 | 14.5 | 17.7 | 0.00 | 0.00 | 0.00 | 44 | 1011.0 |
| 20260503222451 | 21 | 196 | 17.7 | 22.5 | 0.00 | 0.00 | 0.00 | 43 | 1011.0 |
| 20260503221948 | 21 | 184 | 14.5 | 17.7 | 0.00 | 0.00 | 0.00 | 45 | 1011.1 |
| 20260503221446 | 22 | 200 | 22.5 | 24.1 | 0.00 | 0.00 | 0.00 | 42 | 1011.2 |
| 20260503220943 | 21 | 202 | 19.3 | 33.8 | 0.00 | 0.00 | 0.00 | 42 | 1011.3 |
| 20260503220439 | 21 | 235 | 19.3 | 25.7 | 0.00 | 0.00 | 0.00 | 42 | 1011.3 |
| 20260503215936 | 21 | 196 | 17.7 | 20.9 | 0.00 | 0.00 | 0.00 | 43 | 1011.4 |
| 20260503215433 | 21 | 178 | 11.3 | 16.1 | 0.00 | 0.00 | 0.00 | 44 | 1011.3 |
| 20260503214931 | 21 | 196 | 17.7 | 25.7 | 0.00 | 0.00 | 0.00 | 41 | 1011.4 |
| 20260503214428 | 21 | 202 | 19.3 | 25.7 | 0.00 | 0.00 | 0.00 | 41 | 1011.4 |
| 20260503213925 | 21 | 191 | 16.1 | 17.7 | 0.00 | 0.00 | 0.00 | 43 | 1011.8 |
| 20260503213424 | 21 | 245 | 14.5 | 17.7 | 0.00 | 0.00 | 0.00 | 43 | 1011.5 |
| 20260503212920 | 21 | 181 | 14.5 | 20.9 | 0.00 | 0.00 | 0.00 | 43 | 1011.3 |
| 20260503212417 | 21 | 234 | 17.7 | 25.7 | 0.00 | 0.00 | 0.00 | 40 | 1010.9 |
| 20260503211915 | 21 | 224 | 19.3 | 29.0 | 0.00 | 0.00 | 0.00 | 40 | 1011.3 |
| 20260503211412 | 21 | 187 | 16.1 | 20.9 | 0.00 | 0.00 | 0.00 | 44 | 1011.6 |
| 20260503210907 | 21 | 205 | 22.5 | 33.8 | 0.00 | 0.00 | 0.00 | 44 | 1011.8 |
| 20260503210404 | 21 | 214 | 20.9 | 25.7 | 0.00 | 0.00 | 0.00 | 43 | 1012.0 |
| 20260503205858 | 21 | 136 | 17.7 | 27.4 | 0.00 | 0.00 | 0.00 | 43 | 1012.0 |
| 20260503205355 | 20 | 173 | 17.7 | 22.5 | 0.00 | 0.00 | 0.00 | 44 | 1012.0 |
| 20260503204852 | 20 | 192 | 24.1 | 35.4 | 0.00 | 0.00 | 0.00 | 42 | 1011.9 |
| 20260503204349 | 20 | 108 | 12.9 | 17.7 | 0.00 | 0.00 | 0.00 | 44 | 1012.1 |
| 20260503203846 | 20 | 199 | 17.7 | 25.7 | 0.00 | 0.00 | 0.00 | 44 | 1011.7 |
| 20260503203344 | 20 | 214 | 14.5 | 20.9 | 0.00 | 0.00 | 0.00 | 42 | 1012.0 |
| 20260503202841 | 20 | 179 | 27.4 | 35.4 | 0.00 | 0.00 | 0.00 | 43 | 1012.0 |
| 20260503202339 | 20 | 208 | 20.9 | 29.0 | 0.00 | 0.00 | 0.00 | 45 | 1012.0 |
| 20260503201837 | 20 | 178 | 14.5 | 20.9 | 0.00 | 0.00 | 0.00 | 43 | 1012.1 |
| 20260503201333 | 20 | 151 | 14.5 | 17.7 | 0.00 | 0.00 | 0.00 | 43 | 1012.1 |
| 20260503200831 | 20 | 202 | 16.1 | 24.1 | 0.00 | 0.00 | 0.00 | 42 | 1012.2 |
| 20260503200326 | 20 | 171 | 27.4 | 33.8 | 0.00 | 0.00 | 0.00 | 44 | 1012.2 |
| 20260503195824 | 19 | 177 | 22.5 | 27.4 | 0.00 | 0.00 | 0.00 | 44 | 1012.5 |
| 20260503195320 | 19 | 194 | 19.3 | 27.4 | 0.00 | 0.00 | 0.00 | 43 | 1012.3 |
| 20260503194818 | 19 | 176 | 16.1 | 24.1 | 0.00 | 0.00 | 0.00 | 46 | 1012.3 |
| 20260503194314 | 19 | 187 | 24.1 | 30.6 | 0.00 | 0.00 | 0.00 | 46 | 1012.7 |
| 20260503193810 | 19 | 188 | 37.0 | 43.5 | 0.00 | 0.00 | 0.00 | 43 | 1012.9 |
| 20260503193306 | 19 | 171 | 25.7 | 35.4 | 0.00 | 0.00 | 0.00 | 45 | 1012.5 |
| 20260503192802 | 19 | 164 | 24.1 | 38.6 | 0.00 | 0.00 | 0.00 | 46 | 1012.4 |
| 20260503192257 | 19 | 173 | 12.9 | 17.7 | 0.00 | 0.00 | 0.00 | 46 | 1012.6 |
| 20260503191754 | 19 | 170 | 14.5 | 24.1 | 0.00 | 0.00 | 0.00 | 44 | 1012.9 |
| 20260503191251 | 18 | 200 | 33.8 | 38.6 | 0.00 | 0.00 | 0.00 | 43 | 1012.9 |
| 20260503190748 | 18 | 192 | 24.1 | 29.0 | 0.00 | 0.00 | 0.00 | 44 | 1013.3 |
| 20260503190245 | 17 | 238 | 27.4 | 38.6 | 0.00 | 0.00 | 0.00 | 47 | 1013.7 |
| 20260503185742 | 17 | 194 | 22.5 | 33.8 | 0.00 | 0.00 | 0.00 | 48 | 1014.0 |
| 20260503185238 | 18 | 172 | 25.7 | 35.4 | 0.00 | 0.00 | 0.00 | 45 | 1014.3 |
| 20260503184732 | 18 | 218 | 20.9 | 24.1 | 0.00 | 0.00 | 0.00 | 48 | 1014.4 |
| 20260503184229 | 17 | 201 | 20.9 | 27.4 | 0.00 | 0.00 | 0.00 | 48 | 1014.4 |
| 20260503183725 | 17 | 139 | 16.1 | 27.4 | 0.00 | 0.00 | 0.00 | 50 | 1014.5 |
| 20260503183223 | 17 | 185 | 17.7 | 22.5 | 0.00 | 0.00 | 0.00 | 49 | 1014.8 |
| 20260503182721 | 17 | 135 | 17.7 | 24.1 | 0.00 | 0.00 | 0.00 | 49 | 1014.7 |
| 20260503182219 | 17 | 144 | 14.5 | 17.7 | 0.00 | 0.00 | 0.00 | 50 | 1014.8 |
| 20260503181715 | 17 | 166 | 22.5 | 27.4 | 0.00 | 0.00 | 0.00 | 50 | 1015.1 |
| 20260503181213 | 18 | 139 | 19.3 | 24.1 | 0.00 | 0.00 | 0.00 | 48 | 1015.1 |
| 20260503180709 | 18 | 179 | 14.5 | 16.1 | 0.00 | 0.00 | 0.00 | 49 | 1015.2 |
| 20260503180208 | 18 | 193 | 22.5 | 30.6 | 0.00 | 0.00 | 0.00 | 51 | 1015.5 |
| 20260503175704 | 18 | 182 | 27.4 | 33.8 | 0.00 | 0.00 | 0.00 | 48 | 1015.9 |
| 20260503175202 | 18 | 199 | 25.7 | 30.6 | 0.00 | 0.00 | 0.00 | 47 | 1016.3 |
| 20260503174657 | 18 | 208 | 24.1 | 37.0 | 0.00 | 0.00 | 0.00 | 49 | 1016.5 |
| 20260503174155 | 17 | 199 | 14.5 | 16.1 | 0.00 | 0.00 | 0.00 | 50 | 1016.5 |
| 20260503173650 | 17 | 193 | 22.5 | 30.6 | 0.00 | 0.00 | 0.00 | 51 | 1016.6 |
| 20260503173146 | 17 | 212 | 19.3 | 37.0 | 0.00 | 0.00 | 0.00 | 51 | 1017.0 |
| 20260503172644 | 17 | 154 | 20.9 | 25.7 | 0.00 | 0.00 | 0.00 | 51 | 1017.0 |
| 20260503172141 | 17 | 210 | 25.7 | 33.8 | 0.00 | 0.00 | 0.00 | 49 | 1017.0 |
| 20260503171637 | 17 | 226 | 16.1 | 22.5 | 0.00 | 0.00 | 0.00 | 51 | 1017.1 |
| 20260503171135 | 16 | 163 | 14.5 | 20.9 | 0.00 | 0.00 | 0.00 | 56 | 1017.0 |
| 20260503170632 | 16 | 218 | 12.9 | 16.1 | 0.00 | 0.00 | 0.00 | 56 | 1017.1 |
| 20260503170128 | 16 | 134 | 3.2 | 4.8 | 0.00 | 0.00 | 0.00 | 56 | 1016.9 |
| 20260503150520 | 13 | 202 | 19.3 | 25.7 | 0.00 | 0.00 | 0.00 | 62 | 1018.6 |